STARLINK-35598

Last updated on Mon Dec 15 2025 00:02:10 GMT+0000 (Coordinated Universal Time)

1 66509U 25263AA 25348.35495875 .00083130 00000+0 14214-2 0 9990 2 66509 42.9963 115.5964 0002459 212.5604 147.5105 15.50307356 5814
UTC large
Height (km)
Speed (km/s)
/
Latitude / Longitude
Inclination (degrees)
Orbital Period (minutes)
Azimuth
Elevation
Range (km)
Doppler Factor

Next 0 passes for location: London (51.5072 / 0.1276)

Sorry there are no passes over London.